Regional Weather Roundup
Issued by NWS

Home | Current Version | Previous Version | Graphics & Text | Print | Product List | Glossary Off
Versions: 1 2 3 4 5 6 7 8 9 10 11 12 13 14 15 16 17 18 19 20 21 22 23 24 25 26 27 28 29 30 31 32 33 34 35 36 37 38 39 40 41 42 43 44 45 46 47 48 49 50

377
ASUS43 KMKX 140759
RWRWI

WISCONSIN REGIONAL WEATHER ROUNDUP
NATIONAL WEATHER SERVICE MILWAUKEE/SULLIVAN WI
200 AM CST SUN FEB 14 2016

NOTE: "FAIR" INDICATES FEW OR NO CLOUDS BELOW 12,000 FEET WITH NO
SIGNIFICANT WEATHER AND/OR OBSTRUCTIONS TO VISIBILITY.

WIZ001-002-006>008-014>016-023>028-140900-
NORTHWEST WISCONSIN

CITY           SKY/WX    TMP DP  RH WIND       PRES   REMARKS
SUPERIOR ARPT  CLOUDY   -11 -16  79 CALM      30.32F
ASHLAND        CLOUDY   -17 -20  86 CALM      30.32F
HAYWARD        CLOUDY   -13 -18  78 CALM      30.27F
SIREN          CLOUDY   -12 -19  71 CALM      30.28F
CUMBERLAND     CLOUDY    -4 -15  59 SE9       30.27F WCI -20
RICE LAKE      CLOUDY    -4 -15  61 SE3       30.31F
CHETEK         CLOUDY    -8 -15  70 SE3       30.31F
LADYSMITH      CLOUDY   -10 -18  69 E6        30.33F WCI -24
EAU CLAIRE     NOT AVBL
MENOMONIE      CLOUDY    -3 -13  62 E3        30.33S
NEW RICHMOND   CLOUDY     4  -8  57 SE7       30.28F WCI  -8
OSCEOLA        CLOUDY     5  -7  56 SE10      30.31F WCI -10
$$

WIZ003>005-009-010-017-018-140900-
NORTH CENTRAL WISCONSIN

CITY           SKY/WX    TMP DP  RH WIND       PRES   REMARKS
MANITOWISH WTR CLOUDY   -21 -26  76 E3        30.27F
ARBOR VITAE    CLOUDY   -12 -18  75 CALM      30.28F
WOODRUFF       CLOUDY   -12 -18  75 CALM      30.28F
RHINELANDER    CLOUDY   -15 -21  74 CALM      30.29F
EAGLE RIVER    CLOUDY   -18 -25  71 CALM      30.29S
LAND O LAKES   CLOUDY   -24 -30  73 CALM      30.29F
PHILLIPS       CLOUDY   -19 -24  77 CALM      30.28F
TOMAHAWK       CLOUDY   -21 -27  74 CALM      30.31F
MEDFORD        CLOUDY   -11 -17  77 SE3       30.29F
MERRILL        PTCLDY   -16 -21  78 CALM      30.34F
$$

WIZ029-030-035-036-043>047-140900-
CENTRAL WISCONSIN

CITY           SKY/WX    TMP DP  RH WIND       PRES   REMARKS
WAUSAU         CLOUDY   -11 -17  75 CALM      30.33F
MOSINEE        CLOUDY    -8 -13  77 CALM      30.35F
MARSHFIELD     CLOUDY    -6 -14  68 E5        30.31F WCI -17
STEVENS POINT  CLOUDY   -15 -20  78 CALM      30.37F
WAUPACA        CLOUDY    -9 -15  75 CALM      30.42R
WAUTOMA        NOT AVBL
WISC RAPIDS    CLOUDY   -10 -16  74 CALM      30.37F
CAMP DOUGLAS   NOT AVBL
$$

WIZ011>013-019>022-031-037>040-048>050-140900-
NORTHEAST WISCONSIN

CITY           SKY/WX    TMP DP  RH WIND       PRES   REMARKS
ANTIGO         CLOUDY   -16 -21  78 CALM      30.32S
SHAWANO        PTCLDY    -4 -10  77 CALM      30.42S
OCONTO         PTCLDY   -10 -15  80 CALM      30.44S
STURGEON BAY   CLOUDY     0  -9  65 CALM      30.44S
GREEN BAY      PTCLDY    -7 -12  79 CALM      30.43F
MANITOWOC      NOT AVBL
APPLETON       PTCLDY     0  -8  71 CALM      30.39R
CLINTONVILLE   PTCLDY    -8 -13  77 CALM      30.41S
OSHKOSH        CLOUDY    -4 -11  72 S3        30.41F
$$

WIZ032>034-041-042-053>061-140900-
SOUTHWEST WISCONSIN

CITY           SKY/WX    TMP DP  RH WIND       PRES   REMARKS
LA CROSSE      CLOUDY     6  -6  57 SE6       30.34F WCI  -4
SPARTA         CLOUDY    -9 -13  80 CALM      30.36F
VIROQUA        CLOUDY     5  -7  59 SE10      30.30F WCI -10
BOSCOBEL       CLOUDY     6  -3  66 CALM      30.38F
PRAIRIE DU CHI CLOUDY     9  -5  52 E7        30.36F WCI  -2
PLATTEVILLE    CLOUDY    10   2  68 SE8       30.35F WCI  -2
$$

WIZ056-057-062-063-064-067-068-140900-
SOUTH CENTRAL WISCONSIN

CITY           SKY/WX    TMP DP  RH WIND       PRES   REMARKS
REEDSBURG      CLOUDY    -4 -10  77 CALM      30.38S
BARABOO/DELLS  CLOUDY    -2 -11  66 SE5       30.37F WCI -13
LONE ROCK      NOT AVBL
MINERAL POINT  CLOUDY    10  -2  56 SE8       30.34S WCI  -1
MADISON        CLOUDY     4  -6  63 SE6       30.38F WCI  -7
MIDDLETON      CLOUDY     7  -2  66 SE7       30.39F WCI  -5
WATERTOWN      CLOUDY     0  -5  78 CALM      30.40F
MONROE         CLOUDY    10   1  67 E6        30.37S WCI   1
JANESVILLE     CLOUDY    10   1  67 SE7       30.40F WCI   0
$$

WIZ051-052-058>065-066-070>072-140900-
SOUTHEAST WISCONSIN

CITY           SKY/WX    TMP DP  RH WIND       PRES   REMARKS
MILWAUKEE      CLOUDY     4  -5  66 CALM      30.43F
WAUKESHA       CLOUDY    -2  -6  84 CALM      30.42F
MILWAUKEE/TIMM CLOUDY     1  -6  71 CALM      30.45F
RACINE         CLOUDY     2  -6  69 CALM      30.45F
BURLINGTON     CLOUDY    -2  -6  82 CALM      30.43S
KENOSHA        CLOUDY     4  -4  69 CALM      30.43F
FOND DU LAC    CLOUDY    -3 -10  72 S3        30.41F
SHEBOYGAN      CLOUDY    -3  -9  75 W3        30.44S
WEST BEND      CLEAR     -4  -8  84 CALM      30.42F
JUNEAU         PTCLDY    -1  -7  78 E7        30.41F WCI -15
$$

LSZ147-162-140900-
LAKE SUPERIOR

STATION/POSITION TIME  TEMP    WIND        PRES    WAVE
                       AIR SEA DIR/SP/G            HT/PER
                 (UTC) (F)     (DEG/KT/KT) (MB)    (FT/S)
DEVILS ISLAND    0700    8     190/  8/  9 1029.3F
SAXON HARBOR     0700  -15                 1027.8
$$

LMZ867-665-643>646-140900-
LAKE MICHIGAN

STATION/POSITION TIME  TEMP    WIND        PRES    WAVE
                       AIR SEA DIR/SP/G            HT/PER
                 (UTC) (F)     (DEG/KT/KT) (MB)    (FT/S)
CHAMBERS ISLAND  0700    0     170/  4/  5 1030.1S
SISTER BAY       0720    1        CALM       N/A
ALGOMA LAKESHORE 0711             CALM       N/A
KEWAUNEE LAKESHO 0700    1     300/  6/  7 1030.0F
SHEBOYGAN LAKESH 0700    6     260/  7/  8 1032.9F
PORT WASHINGTON  0740    5      CALM  /  3 1031.8F
MILWAUKEE LAKESH 0710   11     310/  2/  3   N/A
KENOSHA   LAKESH 0700   10      CALM  /  2 1030.8F
$$

TC  - TEMPERATURE IN CELSIUS
VSB - VISIBILITY IN STATUTE MILES
WCI - WIND CHILL INDEX
HX  - HEAT INDEX





USA.gov is the U.S. government's official web portal to all federal, state and local government web resources and services.